Weather reports worldwide

Advertisment
Benson, United Kingdom (3658): temperature & dewpoint: 10.07.2018 23:00:00 - 16.07.2018 23:00:00 (BST)Benson, United Kingdom (3658): temperature -20cm & temperature -100cm: 10.07.2018 23:00:00 - 16.07.2018 23:00:00 (BST)Benson, United Kingdom (3658): wind speed: 10.07.2018 23:00:00 - 16.07.2018 23:00:00 (BST)Benson, United Kingdom (3658): wind direction: 10.07.2018 23:00:00 - 16.07.2018 23:00:00 (BST)Benson, United Kingdom (3658): reduced air pressure: 10.07.2018 23:00:00 - 16.07.2018 23:00:00 (BST)Benson, United Kingdom (3658): visibility: 10.07.2018 23:00:00 - 16.07.2018 23:00:00 (BST)Benson, United Kingdom (3658): precipitation: 10.07.2018 23:00:00 - 16.07.2018 23:00:00 (BST)
Date & Time tt [°C] td [°C] tt -20cm [°C] tt -100cm [°C] ff [km/h] ff [kn] dd ppp [hPa] vv [km] rr [mm]
16.07.2018 23:00:00 18,0 9,0 - - 16 9 W - 10 -
16.07.2018 22:00:00 19,3 10,2 - - 15 8 W 1013,9 10 -
16.07.2018 21:00:00 20,3 14,0 - - 13 7 W 1013,1 10 0,0
16.07.2018 20:00:00 21,9 14,1 - - 22 12 W 1012,6 10 0,0
16.07.2018 19:00:00 23,9 12,8 - - 22 12 W 1011,9 10 0,0
16.07.2018 18:00:00 26,9 8,1 - - 21 11 SW 1011,4 10 0,0
16.07.2018 17:00:00 27,0 8,0 - - 16 9 S 1011,8 10 0,0
16.07.2018 16:00:00 26,0 10,0 - - 18 10 SW 1012,1 10 0,0
16.07.2018 15:00:00 25,8 10,8 - - 11 6 WSW 1012,6 10 0,0
16.07.2018 14:00:00 24,7 11,5 - - 15 8 W 1013,0 10 0,0
16.07.2018 13:00:00 25,6 10,9 - - 8 4 WNW 1013,2 10 0,0
16.07.2018 12:00:00 26,0 11,0 - - 5 3 W 1013,6 10 0,0
16.07.2018 11:00:00 23,5 11,4 - - 5 3 WNW 1013,9 10 0,0
16.07.2018 10:00:00 22,8 11,3 19,9 17,7 8 4 W 1014,0 10 0,0
16.07.2018 09:00:00 22,5 10,7 - - 4 2 WSW 1014,0 10 0,0
16.07.2018 08:00:00 18,6 11,8 - - 2 1 SSE 1014,2 10 0,0
16.07.2018 07:00:00 16,6 11,5 - - 2 1 ENE 1014,4 10 0,0
16.07.2018 06:00:00 11,9 10,0 - - 4 2 E 1014,7 16 0,0
16.07.2018 05:00:00 11,1 9,6 - - 2 1 SE 1014,7 17 0,0
16.07.2018 04:00:00 11,1 9,5 - - 4 2 ESE 1014,7 20 0,0
16.07.2018 03:00:00 11,9 9,8 - - 2 1 ENE 1014,8 25 0,0
16.07.2018 02:00:00 12,0 9,6 - - 2 1 S 1015,0 28 0,0
16.07.2018 01:00:00 13,4 10,0 - - 4 2 E 1015,1 29 0,0
16.07.2018 00:00:00 13,5 9,8 - - 2 1 SSE 1015,1 27 0,0
15.07.2018 23:00:00 14,9 9,9 - - 2 1 SSE 1014,9 30 0,0
15.07.2018 22:00:00 17,8 10,2 - - 5 3 E 1014,7 28 0,0
15.07.2018 21:00:00 23,0 9,4 - - 5 3 NW 1014,2 10 0,0
15.07.2018 20:00:00 25,6 6,4 - - 15 8 W 1014,0 30 0,0
15.07.2018 19:00:00 26,8 7,7 - - 16 9 W 1013,8 10 0,0
15.07.2018 18:00:00 27,3 8,9 - - 15 8 W 1014,0 10 0,0
15.07.2018 17:00:00 27,6 8,9 - - 15 8 W 1014,3 30 0,0
15.07.2018 16:00:00 27,1 8,1 - - 13 7 W 1014,7 30 0,0
15.07.2018 15:00:00 27,2 7,9 - - 8 4 N 1014,8 30 0,0
15.07.2018 14:00:00 26,5 7,9 - - 11 6 W 1015,3 30 0,0
15.07.2018 13:00:00 26,2 9,6 - - 11 6 WSW 1015,8 10 0,0
15.07.2018 12:00:00 23,9 11,5 - - 9 5 W 1016,5 10 0,0
15.07.2018 11:00:00 23,0 11,8 - - 5 3 W 1016,7 10 0,0
15.07.2018 10:00:00 21,1 12,9 19,7 17,7 4 2 SW 1017,1 10 0,0
15.07.2018 09:00:00 19,2 13,0 - - 4 2 NW 1017,6 17 0,0
15.07.2018 08:00:00 16,7 12,8 - - 5 3 WNW 1017,6 15 0,0
15.07.2018 07:00:00 15,5 11,9 - - 0 0 N 1017,7 14 0,0
15.07.2018 06:00:00 11,2 9,5 - - 0 0 N 1017,5 10 0,0
15.07.2018 05:00:00 10,3 9,3 - - 4 2 E 1017,7 12 0,0
15.07.2018 04:00:00 10,7 9,4 - - 2 1 ESE 1018,0 10 0,0
15.07.2018 03:00:00 12,0 9,9 - - 0 0 N 1018,0 10 0,0
15.07.2018 02:00:00 12,1 10,2 - - 2 1 E 1018,3 19 0,0
15.07.2018 01:00:00 14,5 10,7 - - 2 1 S 1018,1 10 0,0
15.07.2018 00:00:00 16,7 11,1 - - 5 3 SSW 1018,3 26 0,0
14.07.2018 23:00:00 17,3 11,5 - - 5 3 S 1018,2 10 0,0
14.07.2018 22:00:00 20,1 11,2 - - 8 4 SSW 1018,0 27 0,0
14.07.2018 21:00:00 23,0 11,0 - - 11 6 WSW 1017,5 10 0,0
14.07.2018 20:00:00 25,0 9,1 - - 15 8 SW 1017,4 10 0,0
14.07.2018 19:00:00 26,0 9,3 - - 13 7 SSW 1017,4 30 0,0
14.07.2018 18:00:00 26,4 9,4 - - 16 9 SSW 1017,8 10 0,0
14.07.2018 17:00:00 27,6 10,0 - - 15 8 WSW 1017,9 10 0,0
14.07.2018 16:00:00 25,5 10,2 - - 13 7 SW 1018,4 27 0,0
14.07.2018 15:00:00 25,9 10,4 - - 15 8 SW 1018,8 28 0,0
14.07.2018 14:00:00 24,9 10,9 - - 15 8 S 1019,5 10 0,0
14.07.2018 13:00:00 24,9 11,6 - - 13 7 SW 1019,9 10 0,0
14.07.2018 12:00:00 24,3 11,8 - - 13 7 SSW 1020,5 10 0,0
14.07.2018 11:00:00 22,4 12,5 - - 15 8 SSW 1020,8 10 0,0
14.07.2018 10:00:00 21,6 12,7 19,7 17,7 9 5 SSW 1021,0 10 0,0
14.07.2018 09:00:00 20,8 13,0 - - 2 1 SE 1021,1 10 0,0
14.07.2018 08:00:00 18,9 14,1 - - 2 1 NNE 1021,3 15 0,0
14.07.2018 07:00:00 15,4 13,4 - - 0 0 N 1021,2 10 0,0
14.07.2018 06:00:00 12,6 11,6 - - 0 0 N 1021,0 10 0,0
14.07.2018 05:00:00 11,4 10,7 - - 2 1 SSE 1021,2 14 0,0
14.07.2018 04:00:00 12,7 11,9 - - 4 2 S 1021,4 10 0,0
14.07.2018 03:00:00 12,9 11,7 - - 2 1 SE 1021,5 19 0,0
14.07.2018 02:00:00 14,8 12,6 - - 5 3 S 1021,6 25 0,0
14.07.2018 01:00:00 15,4 12,8 - - 5 3 SSW 1021,8 10 0,0
14.07.2018 00:00:00 15,7 13,0 - - 9 5 SSE 1021,7 25 0,0
13.07.2018 23:00:00 15,7 13,0 - - 2 1 S 1021,7 10 0,0
13.07.2018 22:00:00 16,9 13,5 - - 2 1 ENE 1021,5 25 0,0
13.07.2018 21:00:00 19,8 13,5 - - 5 3 WSW 1020,9 10 0,0
13.07.2018 20:00:00 20,9 13,0 - - 13 7 SSW 1020,7 26 0,0
13.07.2018 19:00:00 22,1 12,9 - - 13 7 SW 1020,6 25 0,0
13.07.2018 18:00:00 23,0 13,3 - - 13 7 W 1020,5 10 0,0
13.07.2018 17:00:00 23,8 11,9 - - 15 8 SSW 1020,5 10 0,0
13.07.2018 16:00:00 25,1 9,2 - - 9 5 S 1020,7 10 0,0
13.07.2018 15:00:00 25,0 10,4 - - 8 4 NNE 1021,1 30 0,0
13.07.2018 14:00:00 24,0 11,1 - - 9 5 NNE 1021,3 10 0,0
13.07.2018 13:00:00 24,0 12,2 - - 4 2 S 1021,9 10 0,0
13.07.2018 12:00:00 21,4 14,0 - - 9 5 E 1022,5 10 0,0
13.07.2018 11:00:00 19,1 14,4 - - 5 3 ESE 1022,8 10 0,0
13.07.2018 10:00:00 17,8 14,1 19,7 17,7 9 5 E 1022,9 10 0,0
13.07.2018 09:00:00 17,1 14,2 - - 8 4 SE 1022,8 10 0,0
13.07.2018 08:00:00 16,6 14,5 - - 9 5 ESE 1022,8 8 0,0
13.07.2018 07:00:00 13,6 12,3 - - 2 1 N 1022,6 6 0,0
13.07.2018 06:00:00 11,6 10,7 - - 4 2 N 1022,5 5 0,0
13.07.2018 05:00:00 11,7 10,8 - - 9 5 N 1022,5 7 0,0
13.07.2018 04:00:00 12,0 10,9 - - 9 5 N 1022,4 10 0,0
13.07.2018 03:00:00 12,5 11,2 - - 5 3 NNE 1022,5 10 0,0
13.07.2018 02:00:00 13,7 11,5 - - 9 5 N 1022,5 10 0,0
13.07.2018 01:00:00 13,4 11,2 - - 9 5 NNE 1022,3 10 0,0
13.07.2018 00:00:00 15,3 11,7 - - 8 4 NNE 1022,4 10 0,0
12.07.2018 23:00:00 17,4 11,5 - - 4 2 NE 1022,0 10 0,0
12.07.2018 22:00:00 18,4 11,6 - - 13 7 NE 1021,5 10 0,0
12.07.2018 21:00:00 20,6 10,9 - - 13 7 NE 1021,0 10 0,0
12.07.2018 20:00:00 22,8 9,9 - - 15 8 NE 1020,8 10 0,0
12.07.2018 19:00:00 23,0 9,5 - - 13 7 NNE 1020,7 10 0,0
12.07.2018 18:00:00 24,4 9,3 - - 13 7 N 1020,4 10 0,0
12.07.2018 17:00:00 24,3 9,3 - - 15 8 N 1020,6 10 0,0
12.07.2018 16:00:00 23,5 9,1 - - 15 8 NNE 1020,9 10 0,0
12.07.2018 15:00:00 23,4 10,1 - - 11 6 NNE 1021,3 10 0,0
12.07.2018 14:00:00 22,7 10,7 - - 8 4 NNE 1021,7 10 0,0
12.07.2018 13:00:00 21,4 10,3 - - 8 4 NNW 1022,0 10 0,0
12.07.2018 12:00:00 19,4 12,6 - - 11 6 NNE 1022,6 10 0,0
12.07.2018 11:00:00 17,7 12,6 - - 11 6 NNE 1022,5 10 0,0
12.07.2018 10:00:00 16,5 12,6 19,7 17,7 13 7 NNE 1022,6 10 0,0
12.07.2018 09:00:00 14,8 12,7 - - 9 5 NE 1022,5 6 0,0
12.07.2018 08:00:00 13,3 12,5 - - 11 6 NNE 1022,5 2,5 0,0
12.07.2018 07:00:00 12,2 12,0 - - 15 8 NNE 1022,3 1,2 0,0
12.07.2018 06:00:00 11,4 11,1 - - 9 5 N 1021,9 2,3 0,0
12.07.2018 05:00:00 10,4 10,0 - - 5 3 NNE 1021,7 7 0,0
12.07.2018 04:00:00 9,9 9,5 - - 5 3 NE 1021,7 10 0,0
12.07.2018 03:00:00 11,7 11,0 - - 5 3 NNW 1021,6 11 0,0
12.07.2018 02:00:00 12,0 10,7 - - 9 5 NE 1021,4 10 0,0
12.07.2018 01:00:00 12,0 10,2 - - 5 3 N 1021,5 10 0,0
12.07.2018 00:00:00 12,8 10,6 - - 5 3 NE 1021,4 10 0,0
11.07.2018 23:00:00 15,1 11,5 - - 8 4 ENE 1021,3 10 0,0
11.07.2018 22:00:00 16,5 11,6 - - 11 6 E 1021,2 10 0,0
11.07.2018 21:00:00 19,4 11,4 - - 8 4 NE 1020,6 10 0,0
11.07.2018 20:00:00 21,9 10,5 - - 16 9 NE 1020,3 10 0,0
11.07.2018 19:00:00 23,0 9,9 - - 16 9 NNE 1020,2 10 0,0
11.07.2018 18:00:00 23,6 10,8 - - 13 7 NE 1020,1 30 0,0
11.07.2018 17:00:00 23,1 10,1 - - 16 9 NE 1020,4 10 0,0
11.07.2018 16:00:00 24,0 10,7 - - 15 8 NNE 1020,6 10 0,0
11.07.2018 15:00:00 23,1 11,6 - - 13 7 N 1021,0 26 0,0
11.07.2018 14:00:00 21,9 11,8 - - 13 7 N 1021,5 10 0,0
11.07.2018 13:00:00 20,0 11,7 - - 9 5 NNE 1022,0 10 0,0
11.07.2018 12:00:00 18,9 11,9 - - 13 7 N 1022,6 10 0,0
11.07.2018 11:00:00 16,8 11,7 - - 9 5 NW 1023,0 10 0,0
11.07.2018 10:00:00 15,4 11,8 19,7 17,5 8 4 N 1023,1 10 0,0
11.07.2018 09:00:00 14,2 11,6 - - 9 5 N 1023,1 10 0,0
11.07.2018 08:00:00 14,0 11,8 - - 9 5 NNE 1023,1 10 0,0
11.07.2018 07:00:00 13,4 11,7 - - 9 5 NNE 1023,0 10 0,0
11.07.2018 06:00:00 12,8 11,5 - - 11 6 NNE 1022,9 10 0,0
11.07.2018 05:00:00 12,7 11,4 - - 13 7 NE 1023,0 10 0,0
11.07.2018 04:00:00 12,7 11,4 - - 8 4 N 1023,0 10 0,0
11.07.2018 03:00:00 12,0 10,9 - - 4 2 NW 1022,9 21 0,0
11.07.2018 02:00:00 12,7 11,2 - - 5 3 N 1023,1 21 0,0
11.07.2018 01:00:00 13,4 11,1 - - 4 2 NW 1023,0 10 0,0
11.07.2018 00:00:00 12,7 10,3 - - 8 4 N 1023,2 10 0,0
10.07.2018 23:00:00 15,0 10,5 - - 2 1 NNE 1023,0 10 0,0

tt = temperature
td = dewpoint
tt -20cm = temperature -20cm
tt -100cm = temperature -100cm
ff = wind speed
dd = wind direction
ppp = reduced air pressure
vv = visibility
rr = precipitation

Next stations